Regional Weather Roundup
Issued by NWS Jackson, KY

Home | Current Version | Previous Version | Text Only | Print | Product List | Glossary On
Versions: 1 2 3 4 5 6 7 8 9 10 11 12 13 14 15 16 17 18 19 20 21 22 23 24 25 26 27 28 29 30 31 32 33 34 35 36 37 38 39 40 41 42 43 44 45 46 47 48 49 50
000
ASUS43 KJKL 230319
RWRJKL

EAST KENTUCKY HOURLY WEATHER ROUNDUP
NATIONAL WEATHER SERVICE JACKSON KY
1100 PM EDT MON SEP 22 2014

NOTE: "FAIR" INDICATES FEW OR NO CLOUDS BELOW 12,000 FEET WITH
NO SIGNIFICANT WEATHER AND/OR OBSTRUCTIONS TO VISIBILITY.

* THESE REPORTS ARE NOT UNDER NWS QUALITY CONTROL AND MAY NOT
  REPORT WEATHER SUCH AS PRECIPITATION AND FOG.

KYZ079-080-083-085-087-088-110-112-115-119-120-230400
...EASTERN KENTUCKY...

CITY           SKY/WX    TMP DP  RH WIND       PRES   REMARKS
JACKSON        PTCLDY    56  45  66 CALM      30.26R
LONDON         CLEAR     54  47  77 CALM      30.26R
SOMERSET*      CLEAR     50  45  81 CALM      30.27R
MONTICELLO*    CLEAR     47  46  96 CALM      30.27R
WILLIAMSBURG*  CLEAR     50  50 100 CALM      30.26
MIDDLESBORO*   CLEAR     51  50  96 CALM      30.25S
HARLAN APT*    CLEAR     50  50 100 MISG      30.26R
BLACK MTN*       N/A     45  45 100 N7          N/A
PIKEVILLE APT* CLEAR     55  46  71 SE3       30.26R
BIG SANDY*     MOCLDY    52  50  93 CALM      30.26R
MOREHEAD APT*  CLEAR     54  46  76 CALM      30.28S
ASHLAND*       CLEAR     48  43  81 CALM      30.26R
$$

KYZ035-036-041-042-044-050-067-078-099-230400
...CENTRAL KENTUCKY...

CITY           SKY/WX    TMP DP  RH WIND       PRES   REMARKS
MT STERLING*   CLEAR     52  46  82 CALM      30.28R
FLEMING/MASON* CLEAR     52  43  71 CALM      30.28R
DANVILLE*      CLEAR     46  43  87 CALM      30.27R
RICHMOND*      CLEAR     50  45  81 CALM      30.26R
LEXINGTON      CLEAR     54  44  69 NE6       30.26R
FRANKFORT      CLEAR     50  46  86 CALM      30.26R
$$

KYZ091>093-OHZ055-061-077-WVZ005-015-034-035-042-230400
...SOUTHERN OHIO/WEST VIRGINIA...

CITY           SKY/WX    TMP DP  RH WIND       PRES   REMARKS
COVINGTON      CLEAR     53  42  66 N3        30.27R
COLUMBUS       CLEAR     53  42  66 CALM      30.26S
DAYTON         CLEAR     52  42  69 CALM      30.29R
WILMINGTON     CLEAR     49  41  74 NE5       30.27R
HUNTINGTON     CLEAR     52  46  80 CALM      30.25R
CHARLESTON     CLEAR     50  50 100 NE3       30.26R
PINEVILLE*     CLEAR     48  48 100 MISG      30.32R FOG
BECKLEY        CLEAR     46  42  86 CALM      30.27R
BLUEFIELD      CLEAR     50  44  80 CALM      30.28R
$$

VAZ002-007-008-TNZ017-027-036-066-071-230400
...SOUTHWEST VIRGINIA/EAST TENNESSEE...

CITY           SKY/WX    TMP DP  RH WIND       PRES   REMARKS
WISE*          CLEAR     50  48  93 NE5       30.28R
JONESVILLE*    CLEAR     50  50 100 CALM      30.27R
ABINGDON*      CLEAR     55  49  82 E3        30.25S
BRISTOL        CLEAR     55  47  74 CALM      30.24R
KNOXVILLE      CLEAR     58  50  75 NE5       30.20R
OAK RIDGE      CLEAR     57  49  74 CALM      30.23R
CROSSVILLE     CLEAR     57  45  64 NE5       30.24R
NASHVILLE      CLEAR     59  47  64 NE6       30.23R
$$

...KEY TO REMARKS...
VSB - VISIBILITY IN MILES
WCI - WIND CHILL INDEX
HX  - HEAT INDEX

$$


USA.gov is the U.S. government's official web portal to all federal, state and local government web resources and services.